Date,TemperatureHighF,TemperatureAvgF,TemperatureLowF,DewpointHighF,DewpointAvgF,DewpointLowF,HumidityHigh,HumidityAvg,HumidityLow,PressureMaxIn,PressureMinIn,WindSpeedMaxMPH,WindSpeedAvgMPH,GustSpeedMaxMPH,PrecipitationSumIn
2013-1-1,32.4,27.5,15.7,24.0,15.6,2.0,72,61,52,29.90,29.70,20,10,0,0.00
2013-1-2,25.4,16.4,8.1,14.0,2.8,-99.9,76,62,53,30.09,29.90,14,-6,0,0.00
2013-1-3,21.1,12.0,1.8,10.0,-2.4,-11.0,67,53,34,30.13,30.00,16,5,0,0.00
2013-1-4,33.8,27.3,19.4,22.0,17.9,11.0,80,68,61,29.98,29.80,25,10,0,0.01
2013-1-5,37.3,31.4,23.9,22.0,18.7,15.0,70,60,48,30.24,29.82,17,6,0,0.00
2013-1-6,38.0,30.6,23.9,27.0,23.3,15.0,95,75,61,30.19,29.92,13,4,0,0.02
2013-1-7,36.3,30.5,21.9,27.0,19.4,9.0,85,65,40,30.37,29.95,12,3,0,0.10
2013-1-8,41.6,27.3,22.2,27.0,0.8,-99.9,80,55,55,30.34,30.25,19,-176,0,0.13
2013-1-9,41.3,34.0,28.4,34.0,14.0,-99.9,84,63,54,30.37,30.00,25,-58,0,0.11
2013-1-10,41.6,36.9,30.6,28.0,22.7,21.0,70,57,45,30.51,30.02,28,7,0,0.00
2013-1-11,35.3,31.3,27.0,34.0,20.7,-99.9,100,76,65,30.50,30.18,4,-10,0,0.20
2013-1-12,41.3,38.0,34.3,41.0,38.0,34.0,100,100,100,30.19,30.09,6,1,0,0.04
2013-1-13,47.4,43.9,39.9,47.0,43.9,40.0,100,100,100,30.11,29.96,13,5,0,0.01
2013-1-14,53.2,45.7,34.9,51.0,40.1,26.0,100,83,51,30.21,29.83,17,6,0,0.01
2013-1-15,37.6,33.4,29.7,26.0,22.7,-99.9,79,68,57,30.30,30.19,4,1,0,0.00
2013-1-16,31.5,29.9,26.9,32.0,28.1,22.0,100,94,69,30.21,29.81,11,2,0,0.00
2013-1-17,36.3,27.3,25.3,31.0,7.2,-99.9,100,69,57,30.07,29.81,17,-132,0,0.29
2013-1-18,25.1,18.2,13.8,14.0,0.9,-5.0,64,48,33,30.44,30.03,19,4,0,0.00
2013-1-19,41.8,33.0,16.1,30.0,20.3,5.0,78,60,47,30.35,29.86,21,9,0,0.07
2013-1-20,46.4,36.3,24.2,30.0,23.1,8.0,79,60,31,29.88,29.52,24,12,0,0.02
2013-1-21,24.1,20.2,16.4,19.0,10.3,4.0,96,67,46,30.08,29.78,13,3,0,0.00
2013-1-22,18.9,15.1,7.9,18.0,3.9,-6.0,96,64,35,30.07,29.74,14,5,0,0.00
2013-1-23,10.5,5.8,1.8,-2.0,-8.4,-12.0,68,52,39,30.14,30.05,18,7,0,0.00
2013-1-24,14.6,6.4,-2.6,-7.0,-10.1,-12.0,69,48,33,30.23,30.09,18,7,0,0.00
2013-1-25,17.7,11.4,4.8,10.0,-5.8,-11.0,85,47,30,30.32,30.04,12,5,0,0.00
2013-1-26,20.6,13.0,6.0,9.0,0.7,-7.0,85,61,37,30.23,30.00,13,3,0,0.00
2013-1-27,26.6,16.8,6.0,4.0,-0.2,-3.0,71,49,30,30.46,30.23,11,4,0,0.00
2013-1-28,26.6,21.6,16.2,25.0,11.5,-1.0,100,69,39,30.44,29.99,10,1,0,0.00
2013-1-29,34.1,26.8,23.6,32.0,19.6,-99.9,100,91,84,30.17,29.99,6,-31,0,0.26
2013-1-30,55.7,41.1,32.4,56.0,28.5,-99.9,100,88,100,30.11,29.39,13,-101,0,0.13
2013-1-31,57.8,43.4,26.7,58.0,35.4,13.0,100,76,45,29.56,28.93,28,11,0,0.88
2013-2-1,27.6,23.7,17.8,17.0,7.8,3.0,69,51,38,30.06,29.56,18,10,0,0.00
2013-2-2,26.4,20.3,13.3,14.0,5.2,-3.0,78,53,41,30.23,30.03,13,6,0,0.00
2013-2-3,25.0,21.2,15.1,21.0,16.6,13.0,93,83,73,30.04,29.72,8,1,0,0.00
2013-2-4,24.7,17.2,15.9,14.0,-5.1,-99.9,84,57,43,29.91,29.71,20,-128,0,0.00
2013-2-5,26.3,20.7,17.7,20.0,10.7,-99.9,94,71,58,30.00,29.91,11,-9,0,0.00
2013-2-6,33.2,25.9,20.5,24.0,16.4,2.0,99,71,41,30.27,29.89,18,5,0,0.02
2013-2-7,29.1,21.5,13.3,7.0,3.9,2.0,71,48,32,30.50,30.28,6,1,0,0.00
2013-2-8,25.0,21.2,15.4,23.0,17.8,6.0,98,87,52,30.45,29.61,24,8,0,0.00
2013-2-9,20.0,15.6,10.5,17.0,12.7,4.0,95,88,75,30.21,29.59,18,6,0,0.00
2013-2-10,34.1,21.5,9.7,15.0,2.8,-99.9,75,51,32,30.40,30.21,6,2,0,0.03
2013-2-11,42.6,31.5,22.1,43.0,20.9,-99.9,100,79,37,30.33,29.59,16,-39,0,0.06
2013-2-12,38.6,35.2,31.6,37.0,27.1,22.0,100,73,61,29.85,29.60,25,10,0,0.00
2013-2-13,38.6,32.5,28.8,24.0,20.0,-99.9,74,63,51,29.84,29.67,12,4,0,0.00
2013-2-14,40.5,32.7,25.7,25.0,17.0,-99.9,81,59,43,29.95,29.67,11,-18,0,0.00
2013-2-15,48.3,35.4,25.3,34.0,20.7,-99.9,100,70,50,29.96,29.87,13,-38,0,0.00
2013-2-16,35.8,31.3,25.4,31.0,22.0,-99.9,99,74,58,29.92,29.69,10,-9,0,0.05
2013-2-17,25.0,17.8,11.6,18.0,3.2,-99.9,91,59,38,29.70,29.42,25,9,0,0.01
2013-2-18,25.8,17.3,9.3,1.0,-7.3,-99.9,57,41,26,30.15,29.70,25,1,0,0.00
2013-2-19,43.3,32.8,20.0,41.0,21.0,-99.9,100,69,42,30.16,29.55,12,-6,0,0.21
2013-2-20,37.3,27.3,21.8,37.0,16.3,8.0,100,65,45,29.77,29.52,24,11,0,0.01
2013-2-21,28.7,23.2,20.0,15.0,11.8,9.0,74,62,50,30.20,29.75,22,9,0,0.00
2013-2-22,37.8,25.7,20.0,22.0,4.2,-99.9,83,58,47,30.36,30.21,13,-94,0,0.00
2013-2-23,33.4,29.0,28.4,32.0,20.4,-99.9,100,82,77,30.28,29.87,8,-51,0,0.00
2013-2-24,33.4,32.0,30.1,33.0,32.1,30.0,100,100,100,29.87,29.68,12,1,0,0.49
2013-2-25,37.2,32.1,26.7,32.0,29.7,26.0,100,91,79,30.21,29.87,5,1,0,0.58
2013-2-26,42.2,34.5,31.6,32.0,28.8,26.0,97,80,62,30.30,30.10,11,2,0,0.45
2013-2-27,38.9,34.8,31.9,39.0,34.6,28.0,100,99,85,30.10,29.56,18,9,0,1.79
2013-2-28,42.9,34.3,31.8,40.0,29.7,-99.9,100,91,76,29.61,29.51,7,-30,0,0.00
2013-3-1,41.2,35.2,31.9,34.0,28.5,24.0,100,78,58,29.66,29.50,14,2,0,0.00
2013-3-2,36.9,32.5,29.7,27.0,22.4,-99.9,79,72,64,29.66,29.61,10,-8,0,0.00
2013-3-3,35.2,29.7,27.0,29.0,21.8,-99.9,94,79,69,29.63,29.55,11,4,0,0.00
2013-3-4,34.1,28.8,23.3,23.0,20.1,17.0,80,71,60,29.73,29.59,24,11,0,0.00
2013-3-5,42.5,33.4,25.4,30.0,24.3,19.0,84,70,55,30.04,29.73,17,3,0,0.00
2013-3-6,36.0,32.8,30.3,34.0,31.5,29.0,100,95,78,30.04,29.99,19,9,0,0.11
2013-3-7,31.5,29.2,27.3,31.0,29.0,27.0,100,99,95,30.02,29.97,22,8,0,0.07
2013-3-8,33.1,29.2,27.5,33.0,24.8,-99.9,100,96,100,30.14,29.92,16,-26,0,0.07
2013-3-9,49.6,36.0,27.0,37.0,27.4,17.0,100,77,29,30.31,30.13,11,3,0,0.33
2013-3-10,45.7,36.3,28.2,32.0,27.2,-99.9,93,75,52,30.38,30.25,7,2,0,0.00
2013-3-11,49.2,39.2,31.6,41.0,34.0,30.0,100,83,58,30.28,30.10,11,3,0,0.00
2013-3-12,50.8,45.9,40.8,50.0,45.6,41.0,100,99,88,30.10,29.68,10,3,0,0.68
2013-3-13,44.2,38.1,31.5,42.0,26.9,19.0,100,67,41,29.76,29.69,14,5,0,0.00
2013-3-14,33.7,26.3,18.8,24.0,13.0,5.0,70,58,47,29.83,29.71,18,8,0,0.00
2013-3-15,36.0,25.4,16.9,29.0,7.4,-99.9,98,59,35,29.87,29.64,17,-49,0,0.00
2013-3-16,35.5,29.3,22.2,27.0,8.5,-99.9,92,53,35,29.85,29.67,10,2,0,0.00
2013-3-17,33.4,26.5,21.0,16.0,9.6,2.0,75,51,28,30.29,29.85,20,3,0,0.00
2013-3-18,35.0,24.3,14.4,23.0,1.2,-99.9,85,43,25,30.43,30.18,8,-130,0,0.00
2013-3-19,32.2,29.3,25.6,32.0,29.2,21.0,100,99,77,30.17,29.60,20,6,0,0.03
2013-3-20,33.7,27.2,21.6,28.0,20.0,16.0,100,76,50,29.79,29.67,20,8,0,0.13
2013-3-21,36.0,28.3,22.9,25.0,16.0,-99.9,88,64,41,29.80,29.59,7,2,0,0.26
2013-3-22,35.3,28.1,20.6,23.0,16.9,13.0,74,63,47,29.74,29.60,20,8,0,0.11
2013-3-23,37.2,31.1,25.0,23.0,17.1,-99.9,82,60,45,29.79,29.65,20,9,0,0.04
2013-3-24,44.5,35.0,27.6,23.0,21.0,17.0,73,58,40,29.82,29.70,10,4,0,0.06
2013-3-25,39.8,33.8,29.5,29.0,25.3,21.0,78,71,65,29.74,29.48,18,5,0,0.00
2013-3-26,43.2,36.2,32.2,28.0,21.2,-99.9,81,61,43,29.77,29.51,12,3,0,0.00
2013-3-27,48.2,38.4,30.1,30.0,23.1,18.0,75,56,36,29.85,29.74,11,4,0,0.00
2013-3-28,45.2,39.4,33.1,34.0,30.3,27.0,96,71,50,30.00,29.84,7,2,0,0.02
2013-3-29,51.4,42.6,34.6,34.0,30.2,27.0,85,64,41,30.03,29.95,14,5,0,0.00
2013-3-30,52.2,42.3,33.2,32.0,19.4,-99.9,81,48,25,30.07,29.96,10,-17,0,0.00
2013-3-31,54.5,39.5,32.8,41.0,14.3,-99.9,99,49,29,30.09,29.68,10,-79,0,0.07
2013-4-1,56.9,41.4,30.3,43.0,30.0,-99.9,100,75,41,29.76,29.48,20,-3,0,0.27
2013-4-2,35.0,29.1,25.3,18.0,11.0,-99.9,67,51,38,29.93,29.76,24,0,0,0.00
2013-4-3,39.6,30.5,25.8,17.0,6.9,-99.9,62,44,30,30.16,29.92,22,-42,0,0.00
2013-4-4,51.4,38.1,26.4,26.0,17.5,12.0,68,46,26,30.30,30.02,15,6,0,0.00
2013-4-5,56.7,42.5,33.2,29.0,25.2,20.0,82,54,26,30.02,29.63,16,6,0,0.00
2013-4-6,43.6,36.0,27.9,27.0,10.7,4.0,73,38,19,30.31,29.86,13,4,0,0.00
2013-4-7,53.6,41.2,28.5,40.0,26.0,4.0,89,57,29,30.31,29.97,14,4,0,0.00
2013-4-8,64.3,50.4,40.8,42.0,38.5,32.0,100,68,33,30.04,29.92,13,4,0,0.00
2013-4-9,65.0,53.9,44.2,53.0,40.4,-99.9,100,70,45,30.02,29.82,20,4,0,0.05
2013-4-10,62.4,49.9,44.1,51.0,39.1,-99.9,100,80,61,29.94,29.80,7,-30,0,0.23
2013-4-11,54.8,46.2,36.5,48.0,38.5,24.0,100,77,46,30.10,29.77,8,2,0,0.06
2013-4-12,36.6,35.0,34.3,35.0,34.0,31.0,100,96,84,30.11,29.76,17,7,0,0.67
2013-4-13,34.3,3.8,33.5,34.0,-84.8,-99.9,100,11,100,29.87,29.72,7,-886,0,0.01
2013-4-14,-200.0,0.0,200.0,-99.9,-99.9,-99.9,0,0,100,30.16,29.86,0,-999,0,0.00
2013-4-15,-200.0,0.0,200.0,-99.9,-99.9,-99.9,0,0,100,30.32,30.15,0,-999,0,0.00
2013-4-16,-200.0,0.0,200.0,-99.9,-99.9,-99.9,0,0,100,30.33,30.02,0,-999,0,0.00
2013-4-17,-200.0,0.0,200.0,-99.9,-99.9,-99.9,0,0,100,30.27,30.03,0,-999,0,0.00
2013-4-18,-200.0,0.0,200.0,-99.9,-99.9,-99.9,0,0,100,30.35,30.08,0,-999,0,0.00
2013-4-19,-200.0,0.0,200.0,-99.9,-99.9,-99.9,0,0,100,30.07,29.60,0,-999,0,0.00
2013-4-20,-200.0,0.0,200.0,-99.9,-99.9,-99.9,0,0,100,30.16,29.56,0,-999,0,0.00
2013-4-21,-200.0,0.0,200.0,-99.9,-99.9,-99.9,0,0,100,30.60,30.17,0,-999,0,0.00
2013-4-22,-200.0,0.0,200.0,-99.9,-99.9,-99.9,0,0,100,30.67,30.51,0,-999,0,0.00
2013-4-23,38.2,8.5,37.8,38.0,-70.6,-99.9,99,21,99,30.51,30.05,16,-774,0,0.01
2013-4-24,72.8,52.3,38.2,48.0,39.7,-99.9,100,71,24,30.06,29.76,14,-6,0,0.00
2013-4-25,57.6,50.5,42.5,51.0,31.4,17.0,95,53,24,30.24,29.78,18,6,0,0.02
2013-4-26,60.9,49.9,42.2,36.0,28.9,20.0,69,45,27,30.38,30.24,7,3,0,0.00
2013-4-27,62.7,48.7,38.5,37.0,29.1,-99.9,86,55,28,30.38,30.24,8,-30,0,0.00
2013-4-28,68.6,54.3,42.5,37.0,30.2,-99.9,77,45,24,30.30,30.16,8,2,0,0.00
2013-4-29,65.8,54.1,46.1,44.0,32.5,-99.9,80,50,28,30.23,30.16,8,3,0,0.00
2013-4-30,69.1,56.7,46.0,35.0,26.0,16.0,61,34,15,30.31,30.20,7,2,0,0.00
2013-5-1,69.9,56.1,44.2,41.0,26.5,-99.9,67,35,22,30.42,30.31,9,-19,0,0.00
2013-5-2,77.4,59.7,47.3,43.0,37.1,31.0,69,47,22,30.42,30.26,13,3,0,0.00
2013-5-3,61.5,47.6,40.1,44.0,29.7,-99.9,83,60,47,30.47,30.33,11,-59,0,0.00
2013-5-4,64.2,52.0,39.5,47.0,36.8,25.0,83,59,32,30.34,30.23,11,2,0,0.00
2013-5-5,63.7,48.7,34.6,42.0,37.3,34.0,100,69,35,30.29,30.20,8,2,0,0.00
2013-5-6,71.6,55.0,40.3,47.0,39.2,-99.9,100,63,27,30.24,30.09,8,-9,0,0.00
2013-5-7,74.9,61.3,48.9,54.0,39.9,-99.9,83,61,34,30.13,30.04,8,3,0,0.00
2013-5-8,69.6,60.2,52.8,63.0,57.3,51.0,100,91,64,30.15,29.98,12,2,0,0.26
2013-5-9,66.8,54.6,54.8,61.0,47.2,-99.9,100,94,70,29.99,29.84,3,-21,0,0.20
2013-5-10,76.0,57.0,52.0,59.0,27.3,-99.9,100,61,37,29.93,29.85,8,-81,0,0.01
2013-5-11,64.5,58.0,56.0,61.0,47.8,-99.9,100,87,77,29.87,29.64,10,-38,0,0.10
2013-5-12,66.4,56.3,45.4,59.0,45.6,-99.9,100,76,43,29.77,29.53,18,-6,0,0.06
2013-5-13,53.5,45.4,38.2,31.0,27.1,23.0,68,50,32,30.01,29.78,14,6,1,0.00
2013-5-14,55.1,46.7,39.5,34.0,24.0,-99.9,69,49,33,30.03,29.97,11,3,0,0.00
2013-5-15,62.4,50.0,37.0,51.0,38.0,26.0,96,66,34,30.04,29.65,12,3,0,0.03
2013-5-16,77.6,64.8,52.2,51.0,39.3,28.0,94,45,20,29.74,29.60,15,7,0,0.00
2013-5-17,67.4,57.3,47.1,42.0,36.9,29.0,75,49,28,30.18,29.75,10,2,0,0.00
2013-5-18,69.8,58.6,46.0,45.0,39.9,33.0,84,54,27,30.27,30.18,10,3,0,0.00
2013-5-19,67.8,53.6,48.5,54.0,35.1,-99.9,100,73,53,30.30,30.16,7,-28,0,0.07
2013-5-20,78.5,65.7,53.9,64.0,59.2,54.0,100,82,55,30.15,29.88,11,4,0,0.01
2013-5-21,85.9,66.3,49.4,66.0,59.8,49.0,100,83,46,29.94,29.77,9,2,0,0.37
2013-5-22,77.6,59.0,48.5,67.0,52.4,-99.9,100,86,68,29.99,29.81,12,-30,0,0.17
2013-5-23,69.1,51.7,55.6,68.0,26.3,-99.9,100,76,86,29.86,29.75,11,-151,0,0.28
2013-5-24,68.4,59.4,44.9,64.0,56.5,43.0,100,91,73,29.79,29.60,11,3,0,0.58
2013-5-25,47.4,43.6,38.5,46.0,41.8,35.0,96,93,86,29.80,29.71,17,5,0,0.39
2013-5-26,54.7,45.5,36.9,44.0,37.1,33.0,92,73,55,30.09,29.71,18,8,0,0.06
2013-5-27,68.4,55.4,41.2,42.0,36.6,31.0,86,54,27,30.13,30.06,13,5,0,0.00
2013-5-28,72.5,60.5,47.9,53.0,41.0,35.0,86,51,27,30.19,30.11,7,1,0,0.00
2013-5-29,74.4,62.2,55.6,66.0,59.9,53.0,100,93,73,30.13,29.94,12,1,0,1.00
2013-5-30,84.1,73.3,62.3,68.0,64.4,62.0,98,76,51,30.05,29.96,11,4,0,0.01
2013-5-31,88.8,78.4,66.9,69.0,63.3,56.0,89,62,35,30.04,29.89,19,4,0,0.00
2013-6-1,88.0,78.1,66.6,67.0,63.4,59.0,81,62,38,29.92,29.81,10,4,0,0.00
2013-6-2,84.7,73.6,65.0,68.0,64.4,59.0,97,75,43,29.83,29.67,15,5,0,0.00
2013-6-3,75.3,66.2,56.0,65.0,61.0,43.0,100,85,60,29.81,29.71,8,2,0,0.60
2013-6-4,68.1,58.8,48.8,47.0,42.0,36.0,68,55,40,30.05,29.80,14,5,0,0.00
2013-6-5,71.3,61.5,51.0,50.0,43.7,-99.9,75,56,35,30.16,30.06,5,1,0,0.00
2013-6-6,70.3,60.6,52.6,52.0,48.5,43.0,93,66,46,30.14,30.05,7,2,0,0.07
2013-6-7,56.7,53.6,50.8,57.0,53.5,51.0,100,100,93,30.05,29.77,16,2,0,2.63
2013-6-8,72.8,59.9,50.2,62.0,55.5,50.0,100,86,65,29.97,29.60,11,5,0,1.03
2013-6-9,74.4,65.1,54.4,62.0,53.9,50.0,93,69,44,30.13,29.97,13,4,0,0.00
2013-6-10,69.6,62.2,56.2,61.0,56.5,50.0,100,82,62,30.15,29.95,8,1,0,1.00
2013-6-11,62.6,57.3,54.4,60.0,56.6,54.0,100,97,87,29.94,29.54,11,2,0,1.25
2013-6-12,67.1,60.6,55.9,58.0,52.3,49.0,100,75,59,29.79,29.54,16,5,0,0.01
2013-6-13,61.6,54.6,49.6,56.0,51.6,48.0,100,90,75,29.79,29.61,11,2,0,1.42
2013-6-14,71.5,58.0,49.2,55.0,51.4,49.0,100,81,48,29.76,29.58,11,3,0,1.31
2013-6-15,73.9,64.6,55.0,51.0,46.0,38.0,77,53,28,29.91,29.76,11,4,0,0.00
2013-6-16,73.2,64.6,53.1,60.0,51.5,42.0,75,63,50,29.91,29.67,10,3,0,0.00
2013-6-17,80.3,67.2,58.4,62.0,56.6,-99.9,96,75,46,29.86,29.74,10,4,0,0.21
2013-6-18,68.1,59.3,55.3,62.0,58.0,55.0,100,95,78,29.90,29.82,7,-13,0,1.81
2013-6-19,72.3,62.3,52.6,55.0,48.7,39.0,100,66,33,30.10,29.87,7,2,0,0.10
2013-6-20,75.4,65.2,53.3,55.0,48.5,41.0,82,56,36,30.22,30.11,7,2,0,0.00
2013-6-21,79.2,67.1,54.5,63.0,57.8,51.0,91,73,51,30.22,30.15,8,3,0,0.00
2013-6-22,80.1,69.8,60.1,62.0,57.4,53.0,82,66,39,30.18,30.07,12,4,0,0.00
2013-6-23,85.5,73.7,61.6,72.0,63.3,54.0,84,70,56,30.11,29.96,11,4,0,0.00
2013-6-24,87.4,76.0,67.1,72.0,68.0,64.0,98,78,53,29.98,29.84,13,5,0,0.09
2013-6-25,85.9,74.0,66.0,70.0,60.4,-99.9,92,70,51,29.88,29.68,11,-6,0,0.00
2013-6-26,80.5,73.9,68.8,69.0,66.3,65.0,90,78,61,29.79,29.67,14,4,0,0.00
2013-6-27,72.1,67.6,63.2,68.0,65.8,63.0,100,94,82,29.80,29.69,3,1,0,0.02
2013-6-28,77.9,67.6,60.1,74.0,64.6,-99.9,100,93,76,29.70,29.44,8,-8,0,0.69
2013-6-29,78.8,72.1,68.3,69.0,67.0,64.0,100,85,64,29.67,29.45,10,2,0,0.00
2013-6-30,82.4,73.8,68.3,71.0,64.6,-99.9,94,81,62,29.87,29.67,7,2,0,0.00
2013-7-1,76.7,68.6,69.6,73.0,57.7,-99.9,99,86,83,30.02,29.87,7,-20,0,0.17
2013-7-2,79.6,74.2,70.8,72.0,66.3,-99.9,95,85,73,30.12,30.01,7,2,0,0.01
2013-7-3,83.6,75.2,66.3,73.0,69.1,64.0,96,82,64,30.16,30.09,8,4,0,0.00
2013-7-4,87.2,78.3,71.1,73.0,71.1,69.0,95,80,60,30.16,30.05,8,4,0,0.00
2013-7-5,88.2,80.3,72.7,74.0,70.9,68.0,89,74,53,30.11,29.99,10,5,0,0.00
2013-7-6,87.0,79.3,71.5,72.0,70.1,66.0,88,74,56,30.02,29.93,11,4,0,0.00
2013-7-7,88.6,78.3,70.9,74.0,68.6,64.0,91,73,57,29.97,29.88,6,3,0,0.02
2013-7-9,75.3,71.2,67.1,69.0,61.8,-99.9,92,83,78,30.05,29.99,5,0,6,0.01
2013-7-10,82.2,70.8,66.0,73.6,66.2,-99.9,99,89,68,30.02,29.74,8,-14,9,0.08
2013-7-11,80.1,72.5,68.1,72.0,67.1,-99.9,98,86,67,29.88,29.72,6,-11,0,0.02
2013-7-12,75.6,69.4,65.5,64.0,58.8,53.0,81,69,60,30.14,29.87,10,3,0,0.00
2013-7-13,73.5,67.9,61.8,70.0,64.3,54.0,96,88,68,30.27,30.15,6,1,0,0.05
2013-7-14,86.7,77.9,70.6,73.0,70.4,68.0,98,79,56,30.26,30.15,8,2,0,0.00
2013-7-15,89.0,79.4,70.9,73.0,69.9,68.0,94,74,53,30.16,30.05,4,1,0,0.00
2013-7-16,89.3,80.1,70.9,71.0,66.4,63.0,79,64,46,30.11,30.06,5,1,0,0.00
2013-7-17,89.9,80.8,71.6,73.0,68.9,64.0,85,68,49,30.12,29.96,6,2,0,0.00
2013-7-18,91.2,82.0,74.0,74.0,71.0,69.0,85,70,49,29.95,29.87,7,3,0,0.33
2013-7-19,91.2,84.1,74.0,76.0,72.3,69.1,88,69,50,29.88,29.67,13,6,16,0.00
2013-7-20,86.5,79.4,70.1,75.0,71.2,61.0,92,76,58,29.75,29.61,10,4,0,0.73
2013-7-21,84.5,74.2,65.6,66.0,62.8,59.0,89,69,46,29.92,29.76,5,1,0,0.00
2013-7-22,82.0,72.5,65.0,69.0,66.7,64.0,99,83,60,29.95,29.82,7,1,0,0.00
2013-7-23,83.4,71.6,68.1,77.0,70.1,66.0,100,95,70,29.81,29.48,6,1,0,1.30
2013-7-24,78.8,72.9,63.9,71.0,63.5,-99.9,100,78,56,29.89,29.52,10,3,0,0.00
2013-7-25,63.2,57.8,55.9,57.0,52.6,47.0,97,83,69,30.06,29.90,8,2,0,0.25
2013-7-26,70.6,63.2,58.1,63.0,59.3,57.0,98,88,76,30.03,29.92,14,3,0,0.55
2013-7-27,80.5,68.2,59.3,66.0,61.3,56.0,99,81,54,30.03,29.95,6,2,0,0.01
2013-7-28,81.2,70.8,61.6,68.0,64.2,60.0,99,81,58,29.96,29.91,3,0,0,0.00
2013-7-29,82.6,71.5,63.5,70.0,64.5,59.0,98,80,54,29.99,29.91,7,1,0,0.00
2013-7-30,77.7,68.8,59.9,60.0,56.3,53.0,83,66,46,30.07,30.00,9,4,0,0.00
2013-7-31,79.2,69.2,58.9,63.0,57.7,53.0,92,69,42,30.11,29.99,5,1,0,0.00
2013-8-1,77.6,65.4,59.6,65.0,61.2,58.0,99,87,63,30.00,29.81,4,1,0,0.09
2013-8-2,77.9,71.5,62.7,66.0,61.8,57.9,99,73,52,29.83,29.75,8,3,10,0.90
2013-8-3,76.1,66.6,59.8,62.0,60.4,58.0,95,81,60,29.82,29.75,8,4,0,0.00
2013-8-4,75.8,64.7,57.2,60.0,55.0,52.0,93,72,45,29.86,29.74,11,4,0,0.02
2013-8-5,73.0,61.3,52.6,53.0,47.9,43.0,90,65,36,30.01,29.85,11,3,0,0.00
2013-8-6,76.1,65.2,55.3,56.0,49.5,42.0,85,58,41,30.09,30.01,3,1,0,0.00
2013-8-7,76.7,66.2,56.0,60.0,56.0,51.0,92,72,43,30.14,30.06,10,2,0,0.00
2013-8-8,79.0,69.3,63.2,70.0,65.8,58.0,98,88,72,30.07,29.96,7,2,0,0.06
2013-8-9,73.7,71.0,69.6,73.0,68.0,-99.9,99,95,90,29.97,29.71,10,3,0,0.69
2013-8-10,78.1,69.8,60.4,70.0,59.7,49.0,98,73,43,29.97,29.76,14,5,0,0.04
2013-8-11,75.3,65.1,53.9,58.0,53.5,49.0,85,67,49,30.06,29.97,9,2,0,0.06
2013-8-12,78.6,68.1,58.0,61.0,58.1,55.0,93,73,47,29.99,29.88,7,2,0,0.00
2013-8-13,73.2,66.2,62.0,66.0,62.7,59.0,97,88,72,29.88,29.64,4,1,0,0.00
2013-8-14,69.6,62.1,54.5,63.0,52.9,49.0,95,73,50,29.95,29.63,13,6,0,0.00
2013-8-15,72.7,61.4,51.7,54.0,51.6,49.0,92,72,46,30.09,29.95,8,3,0,0.00
2013-8-16,75.4,64.5,53.5,58.0,53.8,49.0,88,70,48,30.16,30.08,7,3,0,0.00
2013-8-17,79.2,68.0,56.9,62.0,56.9,53.0,89,70,41,30.24,30.16,5,1,0,0.00
2013-8-18,77.6,67.1,59.6,62.0,59.2,56.0,90,77,53,30.23,30.05,3,1,0,0.00
2013-8-19,76.8,65.4,58.7,64.0,54.5,-99.9,93,74,57,30.04,29.93,8,-27,0,0.00
2013-8-20,81.1,71.1,61.0,65.0,60.9,58.0,94,72,49,30.05,29.94,7,3,0,0.00
2013-8-21,83.4,72.9,63.4,65.0,62.1,58.0,87,70,51,30.11,29.98,6,3,0,0.00
2013-8-22,80.7,72.3,63.1,70.0,65.9,61.0,95,81,67,29.99,29.78,10,3,0,0.00
2013-8-23,78.3,69.3,60.7,68.0,58.3,50.0,94,70,47,30.07,29.77,6,2,0,0.00
2013-8-24,76.1,65.1,56.2,55.0,49.1,46.0,71,58,37,30.29,30.08,6,2,0,0.00
2013-8-25,77.9,67.2,55.9,57.0,53.3,47.0,90,64,35,30.33,30.14,6,2,0,0.00
2013-8-26,76.1,68.3,61.6,66.0,60.7,55.0,97,77,64,30.14,29.83,9,4,0,0.05
2013-8-27,82.4,70.2,66.9,71.0,64.0,-99.9,100,86,62,29.84,29.77,4,-21,0,0.09
2013-8-28,84.0,73.2,65.3,70.0,66.6,62.0,99,81,56,29.89,29.79,6,1,0,0.00
2013-8-29,66.8,62.9,59.6,66.0,62.1,58.0,100,97,94,30.02,29.87,6,2,0,0.04
2013-8-30,79.4,57.3,58.1,68.0,37.1,-99.9,100,74,66,29.99,29.79,7,-200,0,0.01
2013-8-31,-200.0,0.0,200.0,-99.9,-99.9,-99.9,0,0,100,29.82,29.74,0,-999,0,0.00
2013-9-1,-200.0,0.0,200.0,-99.9,-99.9,-99.9,0,0,100,29.85,29.77,0,-999,0,0.00
2013-9-2,-200.0,0.0,200.0,-99.9,-99.9,-99.9,0,0,100,29.84,29.69,0,-999,0,0.00
2013-9-3,-200.0,0.0,200.0,-99.9,-99.9,-99.9,0,0,100,29.79,29.68,0,-999,0,0.00
2013-9-4,-200.0,0.0,200.0,-99.9,-99.9,-99.9,0,0,100,29.89,29.78,0,-999,0,0.00
2013-9-5,-200.0,0.0,200.0,-99.9,-99.9,-99.9,0,0,100,30.11,29.84,0,-999,0,0.00
2013-9-6,-200.0,0.0,200.0,-99.9,-99.9,-99.9,0,0,100,30.21,30.06,157,-987,0,0.00
2013-9-7,-200.0,0.0,200.0,-99.9,-99.9,-99.9,0,0,100,30.06,29.83,0,-999,0,0.00
2013-9-8,70.1,27.9,48.5,57.0,-34.8,-99.9,71,23,33,30.07,29.73,11,-535,0,0.00
2013-9-9,66.0,55.7,45.7,49.0,38.7,-99.9,82,60,39,30.21,30.06,8,2,0,0.00
2013-9-10,71.8,64.2,54.7,68.0,59.4,-99.9,96,89,81,30.11,30.00,11,4,0,0.04
2013-9-11,90.1,77.5,68.4,74.0,70.2,64.0,97,80,53,30.03,29.89,8,4,3,0.01
2013-9-12,81.8,73.2,65.6,71.0,67.6,64.0,94,83,64,29.91,29.62,6,3,0,0.65
2013-9-13,75.1,65.4,56.3,65.0,61.0,53.0,96,86,64,29.73,29.53,8,2,0,0.05
2013-9-14,65.6,56.6,50.7,53.0,49.5,45.0,90,78,57,30.02,29.73,13,4,0,0.00
2013-9-15,66.6,56.0,45.2,51.0,47.1,43.0,94,74,45,30.14,30.02,7,2,0,0.00
2013-9-16,65.3,55.4,43.2,53.0,47.1,34.0,87,74,61,30.22,29.98,6,3,0,0.01
2013-9-17,60.5,48.9,38.6,43.0,36.3,32.0,86,64,42,30.40,30.22,7,1,0,0.00
2013-9-18,69.3,56.1,43.9,48.0,43.1,38.0,86,65,34,30.30,30.11,8,3,0,0.00
2013-9-19,75.3,62.1,49.6,53.0,46.7,-99.9,79,62,37,30.11,30.01,8,3,0,0.00
2013-9-20,77.4,63.3,53.1,55.0,49.8,-99.9,93,67,36,30.05,29.95,6,2,0,0.00
2013-9-21,71.3,62.5,54.1,63.0,58.0,53.0,97,86,67,29.97,29.67,10,3,0,0.01
2013-9-22,66.9,59.7,48.2,65.0,51.1,-99.9,94,78,56,29.81,29.55,10,4,0,0.40
2013-9-23,60.1,49.5,41.1,43.0,39.5,36.0,87,70,51,29.99,29.81,14,3,0,0.00
2013-9-24,65.5,50.4,38.3,43.0,38.9,34.0,92,68,32,29.98,29.80,11,3,0,0.00
2013-9-25,67.6,55.6,45.5,54.0,46.1,41.0,85,71,52,29.94,29.84,6,2,0,0.00
2013-9-26,64.3,55.9,50.8,49.0,46.4,43.0,87,72,50,30.08,29.94,5,1,0,0.00
2013-9-27,62.1,55.9,51.3,51.0,48.9,48.0,88,78,60,30.23,30.08,5,1,0,0.00
2013-9-28,70.9,59.0,50.2,54.0,50.0,47.0,89,74,48,30.30,30.22,6,1,0,0.00
2013-9-29,66.6,55.2,47.6,53.0,44.3,-99.9,95,73,38,30.22,30.08,5,0,0,0.00
2013-9-30,67.9,55.8,43.8,51.0,46.6,42.0,94,74,44,30.08,29.93,5,0,0,0.00
2013-10-1,74.6,62.6,51.3,56.0,51.1,47.0,86,68,42,29.94,29.82,8,3,0,0.00
2013-10-2,75.3,65.3,56.2,59.0,54.6,50.0,85,69,55,29.91,29.82,13,6,0,0.00
2013-10-3,72.5,62.4,54.1,52.0,48.0,44.0,79,61,38,30.05,29.92,6,2,0,0.00
2013-10-4,62.1,57.9,55.6,56.0,51.8,45.0,94,81,60,30.06,30.00,3,1,0,0.61
2013-10-5,67.6,60.8,56.6,60.0,56.9,55.0,96,87,72,30.08,30.01,5,0,0,0.11
2013-10-6,58.3,54.5,52.0,55.0,53.1,51.0,97,95,88,30.17,30.07,6,1,0,0.63
2013-10-7,72.5,61.3,53.9,69.0,59.2,53.0,97,93,76,30.09,29.76,13,3,0,0.27
2013-10-8,63.4,55.2,48.3,53.0,44.2,39.0,92,69,44,30.25,29.87,11,4,0,0.00
2013-10-9,60.2,50.1,44.2,45.0,40.7,35.0,91,71,53,30.45,30.33,16,2,0,0.00
2013-10-10,57.8,50.4,43.5,50.0,45.0,-99.9,96,86,74,30.34,30.15,5,1,0,0.00
2013-10-11,67.6,56.6,47.7,55.0,45.8,36.0,93,69,45,30.15,30.06,10,2,0,0.00
2013-10-12,55.9,53.1,50.2,53.0,49.3,44.0,95,87,70,30.35,30.11,11,4,0,0.01
2013-10-13,55.7,50.1,44.2,48.0,45.6,42.0,94,85,71,30.41,30.34,8,1,0,0.00
2013-10-14,64.3,51.2,40.8,45.0,41.1,33.0,94,72,33,30.38,30.23,5,1,0,0.00
2013-10-15,65.3,56.8,49.8,51.0,48.2,44.0,88,74,56,30.23,30.14,6,1,0,0.00
2013-10-16,56.9,52.4,48.2,51.0,48.6,46.0,96,87,73,30.14,29.90,5,1,0,0.00
2013-10-17,69.6,59.8,51.3,58.0,54.6,49.0,96,84,57,29.89,29.68,8,3,0,0.01
2013-10-18,62.4,57.2,46.5,59.0,47.2,37.0,96,71,49,29.88,29.56,18,5,0,0.01
2013-10-19,63.5,52.6,42.3,45.0,39.5,36.0,80,63,40,29.94,29.70,6,2,0,0.00
2013-10-20,57.5,50.3,42.8,49.0,36.8,28.0,94,63,34,30.00,29.65,12,4,0,0.02
2013-10-21,63.1,51.5,41.3,41.0,34.7,-99.9,76,57,34,30.10,29.96,10,3,0,0.00
2013-10-22,62.1,51.0,44.1,50.0,43.2,34.0,95,76,55,29.95,29.69,11,3,0,0.00
2013-10-23,47.7,42.4,36.8,34.0,29.8,-99.9,78,65,51,29.77,29.57,7,2,0,0.00
2013-10-24,49.8,41.3,34.3,32.0,26.6,20.0,84,59,33,29.86,29.63,13,6,0,0.00
2013-10-25,46.5,38.9,33.5,32.0,26.7,23.0,83,63,42,30.14,29.86,12,5,0,0.00
2013-10-26,51.1,41.6,30.9,32.0,27.6,22.0,86,60,34,30.13,29.84,18,5,0,0.00
2013-10-27,50.1,43.9,37.0,34.0,29.9,26.0,76,59,42,30.04,29.76,14,4,0,0.00
2013-10-28,53.8,42.1,31.9,32.0,29.2,25.0,85,62,42,30.32,30.05,16,4,0,0.00
2013-10-29,46.1,36.8,29.1,25.0,17.7,12.0,73,48,27,30.42,30.32,8,1,0,0.00
2013-10-30,51.3,41.5,34.1,40.0,31.0,15.0,91,67,45,30.34,30.17,12,3,0,0.00
2013-10-31,58.3,50.4,39.6,57.0,49.0,38.0,99,95,88,30.21,29.77,8,3,0,0.06
2013-11-1,65.0,60.5,56.0,60.0,54.7,49.0,95,81,68,29.76,29.43,18,9,0,0.12
2013-11-2,62.7,53.5,46.2,48.0,40.6,36.0,86,64,39,29.69,29.56,9,2,0,0.00
2013-11-3,46.8,38.4,28.4,42.0,25.0,12.0,87,61,31,30.39,29.68,9,2,0,0.00
2013-11-4,40.2,31.5,25.0,18.0,13.2,10.0,63,48,30,30.68,30.40,8,2,0,0.00
2013-11-5,48.6,38.7,29.4,34.0,25.4,18.0,78,60,44,30.70,30.48,8,2,0,0.00
2013-11-6,57.8,48.6,40.5,46.0,40.0,34.0,88,73,52,30.48,30.01,12,5,0,0.00
2013-11-7,60.4,53.4,41.3,55.0,49.3,36.0,92,86,76,30.00,29.66,17,8,0,0.16
2013-11-8,43.9,36.7,30.7,32.0,23.9,19.0,83,61,40,30.07,29.86,19,8,0,0.01
2013-11-9,40.1,34.9,28.5,27.0,22.1,18.0,72,60,45,30.20,30.00,11,4,0,0.00
2013-11-10,50.7,42.3,37.3,38.0,33.0,26.0,88,70,54,30.00,29.74,17,7,0,0.02
2013-11-11,46.7,41.7,35.2,28.0,23.3,-99.9,62,51,39,30.08,29.84,19,8,0,0.00
2013-11-12,46.5,31.7,24.1,35.0,21.7,12.0,91,68,48,30.17,29.84,19,6,0,0.08
2013-11-13,31.8,25.8,20.8,14.0,11.2,6.0,70,55,34,30.29,30.16,14,6,7,0.00
2013-11-14,47.9,37.0,26.6,20.0,16.0,13.0,59,44,31,30.16,30.04,17,8,0,0.00
2013-11-15,58.1,45.2,34.7,27.0,16.3,10.0,50,33,19,30.19,30.09,10,5,0,0.00
2013-11-16,56.3,47.4,41.6,36.0,25.3,19.0,78,44,28,30.29,30.14,8,3,0,0.00
2013-11-17,54.4,46.6,41.3,50.0,43.3,36.0,99,88,72,30.26,29.80,5,1,0,0.06
2013-11-18,60.5,55.3,43.9,59.0,43.3,29.0,100,68,41,29.79,29.49,18,8,0,0.21
2013-11-19,43.6,35.7,27.2,28.0,19.4,14.0,60,52,43,30.27,29.63,24,7,0,0.00
2013-11-20,40.2,30.2,23.6,14.0,10.3,4.0,62,45,25,30.60,30.26,10,2,0,0.00
2013-11-21,44.2,35.7,26.6,31.0,17.7,5.0,74,49,32,30.61,30.35,10,3,0,0.00
2013-11-22,46.1,43.3,38.9,46.0,41.0,31.0,99,91,74,30.34,29.79,10,4,0,0.04
2013-11-23,46.2,35.9,24.7,44.0,23.0,12.0,92,61,39,29.90,29.76,22,11,0,0.01
2013-11-24,24.4,19.5,16.4,15.0,0.3,-8.0,71,45,25,30.19,29.79,27,12,13,4.51
2013-11-25,29.1,21.7,13.5,13.0,1.4,-10.0,56,42,22,30.36,30.19,16,7,0,0.24
2013-11-26,37.2,31.7,26.1,33.0,18.9,9.0,97,61,43,30.31,30.00,13,4,0,0.01
2013-11-27,59.9,45.4,32.9,60.0,44.5,28.0,100,96,80,29.98,29.21,18,7,0,0.84
2013-11-28,33.5,25.7,20.0,28.0,12.0,4.0,79,57,37,30.42,29.44,22,10,0,2.02
2013-11-29,30.4,23.5,17.2,13.0,8.6,2.0,72,54,40,30.72,30.43,13,3,0,0.02
2013-11-30,29.7,22.4,13.8,19.0,8.3,2.0,71,55,42,30.78,30.41,6,1,0,0.00
2013-12-1,36.9,33.6,27.2,36.0,31.2,19.0,99,91,72,30.39,29.99,6,1,0,0.06
2013-12-2,37.5,35.4,32.2,37.0,35.3,32.0,99,99,98,29.98,29.89,6,0,0,0.01
2013-12-3,46.7,36.1,29.3,41.0,31.6,28.0,100,85,54,29.93,29.83,6,1,0,0.00
2013-12-4,41.6,34.5,28.8,28.0,26.1,25.0,91,73,54,30.16,29.93,10,3,0,0.01
2013-12-5,53.6,41.6,35.8,54.0,38.9,26.0,100,90,63,30.16,29.88,11,2,0,0.03
2013-12-6,54.7,44.7,32.5,55.0,43.4,31.0,100,95,82,30.10,29.83,10,3,0,0.22
2013-12-7,34.0,30.6,25.6,31.0,25.0,16.0,94,80,64,30.43,30.05,10,2,0,0.11
2013-12-8,27.3,24.6,19.9,18.0,14.1,12.0,77,65,53,30.57,30.43,5,1,0,0.00
2013-12-9,33.2,29.0,22.1,33.0,27.3,14.0,99,93,64,30.46,29.88,12,4,0,0.03
2013-12-10,32.8,28.6,20.0,32.0,25.4,14.0,99,88,70,29.98,29.76,12,6,0,0.00
2013-12-11,25.3,21.7,18.1,16.0,14.1,11.0,81,72,65,30.20,29.98,17,8,0,0.01
2013-12-12,20.5,16.9,12.4,14.0,4.1,-3.0,81,59,38,30.26,30.05,19,6,0,0.00
2013-12-13,24.8,18.7,12.3,16.0,6.0,-99.9,73,60,53,30.35,29.99,17,7,0,0.00
2013-12-14,16.5,11.0,8.4,13.0,2.2,-8.0,86,69,43,30.57,30.14,14,4,0,0.00
2013-12-15,25.6,22.5,16.4,24.0,20.0,13.0,92,90,86,30.11,29.45,24,7,0,0.00
2013-12-16,23.2,20.0,13.5,19.0,9.4,-99.9,89,67,49,30.18,29.73,19,8,0,0.00
2013-12-17,18.4,10.9,4.7,16.0,5.9,-1.0,88,80,67,30.25,29.94,10,3,6,0.00
2013-12-18,27.2,22.4,17.5,23.0,18.4,14.0,89,84,76,30.07,29.88,13,5,0,0.01
2013-12-19,38.5,31.0,17.7,23.0,20.0,14.0,87,65,48,30.10,29.94,25,7,0,0.06
2013-12-20,50.2,40.9,32.5,30.0,27.3,23.0,73,59,45,30.08,29.88,12,4,0,0.56
2013-12-21,54.7,47.7,38.8,46.0,38.5,29.0,88,71,57,29.93,29.83,12,5,0,0.01
2013-12-22,62.9,50.9,34.1,59.0,48.7,34.0,100,93,75,29.95,29.71,18,6,0,0.00
2013-12-23,39.6,34.1,31.3,39.0,33.9,31.0,100,99,86,30.07,29.94,8,3,0,0.64
2013-12-24,34.9,29.7,21.9,31.0,19.4,7.0,85,67,49,30.19,30.03,17,3,0,0.00
2013-12-25,21.4,16.4,11.7,9.0,1.2,-1.0,63,52,38,30.52,30.20,14,3,0,0.00
2013-12-26,29.5,22.7,14.4,27.0,16.6,2.0,90,78,58,30.48,30.08,12,3,0,0.00
2013-12-27,29.8,25.9,21.1,19.0,16.9,14.0,84,69,57,30.27,30.18,13,7,0,0.01
2013-12-28,42.3,34.3,25.4,25.0,22.1,18.0,77,62,47,30.19,29.99,22,8,0,0.01
2013-12-29,40.3,36.7,33.4,37.0,29.9,24.0,100,78,56,30.00,29.41,16,4,0,1.30
2013-12-30,38.0,29.1,14.3,35.0,19.4,5.0,100,70,38,30.13,29.52,17,7,0,0.01
2013-12-31,21.8,16.5,10.2,14.0,6.0,1.0,78,64,47,30.17,30.00,14,4,0,0.00
2014-1-1,23.6,18.7,14.4,10.0,4.3,0.0,70,54,41,30.36,30.17,19,5,0,0.00
2014-1-2,18.1,9.9,-0.4,13.0,5.1,-6.0,85,81,72,30.33,29.82,27,8,0,0.00